Location: Bamazo
(6.7448°N, 10.8189°W)
Time: 03:22:46
(UTC+00:00)

YAOGAN 1 - Pass Details

Date: 18 September 2020
Orbit: 618 x 620 km, 97.9° (Epoch: 23 October)

Event Time Altitude Azimuth Distance (km) Brightness Sun altitude
Rises 19:47:52 0° 169° (S) 2,889 5.8 -17.4°
Reaches altitude 10° 19:50:03 10° 169° (S) 1,982 5.0 -17.9°
Maximum altitude 19:54:22 86° 255° (WSW) 624 2.5 -19.0°
Drops below altitude 10° 19:58:41 10° 347° (NNW) 1,979 5.3 -20.1°
Sets 20:00:52 0° 348° (NNW) 2,883 6.2 -20.6°
